Location: Bazugues
(43.4465°N, 0.3432°E)
Time: 11:17:29
(UTC+00:00)

YAOGAN 3 - Pass Details

Date: 12 January 2026
Orbit: 596 x 598 km, 97.8° (Epoch: 11 February)

Event Time Altitude Azimuth Distance (km) Brightness Sun altitude
Rises 18:44:03 0° 162° (SSE) 2,832 7.9 -21.2°
Reaches altitude 10° 18:46:12 10° 161° (SSE) 1,934 7.0 -21.6°
Maximum altitude 18:50:24 78° 75° (ENE) 618 4.3 -22.3°
Drops below altitude 10° 18:54:38 10° 350° (N) 1,948 7.1 -23.1°
Sets 18:56:49 0° 349° (N) 2,855 8.0 -23.5°
